Cape Girardeau, MO

11:23 PM CST on January 19, 2018 (GMT -0600)
Cape Girardeau Regional

Weather History for KCGI - March, 2013

Change the Weather History Date:

Friday, March 22, 2013

  Actual Average Record
Temperature  
Mean Temperature 37 °F 49 °F  
Max Temperature 42 °F 60 °F 77 °F (1988)
Min Temperature 32 °F 38 °F 21 °F (2002)
Degree Days  
Heating Degree Days 28 16  
Month to date heating degree days 531 427  
Since 1 July heating degree days 3770 3924  
Cooling Degree Days 0 0  
Month to date cooling degree days 0 0  
Year to date cooling degree days 0 0  
Moisture  
Dew Point 26 °F    
Average Humidity 67    
Maximum Humidity 85    
Minimum Humidity 49    
Precipitation  
Precipitation T in 0.15 in 1.26 in (1991)
Month to date precipitation 1.68 3.00  
Year to date precipitation 8.30 9.88  
Sea Level Pressure  
Sea Level Pressure 30.01 in    
Wind  
Wind Speed 6 mph (East)    
Max Wind Speed 10 mph    
Max Gust Speed 15 mph    
Visibility 9 miles    
Events Snow    
T = Trace of Precipitation, MM = Missing Value Source: NWS Daily Summary

Daily Weather History Graph

Daily Weather History Graph

Search for Another Location

Airport or City:

Trip Planner

Search our weather history database for the weather conditions in past years. The results will help you decide how hot, cold, wet, or windy it might be!

Date:

Astronomy

Mar. 22, 2013 Rise Set
Actual Time 6:58 AM CDT 7:12 PM CDT
Civil Twilight 6:32 AM CDT 7:38 PM CDT
Nautical Twilight 6:02 AM CDT 8:08 PM CDT
Astronomical Twilight 5:31 AM CDT 8:39 PM CDT
Moon 2:44 PM CDT (3/22) 3:53 AM CDT (3/22)
Length of Visible Light 13h 05m
Length of Day
12h 13m
Waxing Gibbous, 77% of the Moon is Illuminated
Mar 22
Waxing Gibbous
Mar 27
Full
Apr 2
Last Quarter
Apr 10
New
Apr 18
First Quarter

Hourly Weather History & Observations

Time (CDT) Temp. Windchill Dew Point Humidity Pressure Visibility Wind Dir Wind Speed Gust Speed Precip Events Conditions
12:53 AM 34.0 °F 28.0 °F 28.0 °F 79% 30.03 in 10.0 mi South 6.9 mph - N/A   Overcast
1:53 AM 34.0 °F 29.8 °F 28.9 °F 82% 30.03 in 10.0 mi SSE 4.6 mph - N/A   Overcast
2:53 AM 34.0 °F - 28.9 °F 82% 30.02 in 10.0 mi Calm Calm - N/A   Overcast
3:53 AM 35.1 °F 28.6 °F 26.1 °F 70% 30.00 in 10.0 mi ENE 8.1 mph - N/A   Overcast
4:53 AM 35.1 °F 28.6 °F 21.9 °F 59% 29.99 in 10.0 mi East 8.1 mph - N/A   Overcast
5:53 AM 35.1 °F 29.3 °F 21.9 °F 59% 30.01 in 10.0 mi East 6.9 mph - N/A   Overcast
6:53 AM 33.1 °F 30.0 °F 24.1 °F 70% 30.04 in 7.0 mi East 3.5 mph - 0.00 in Snow Light Snow
7:20 AM 32.0 °F 25.6 °F 26.6 °F 80% 30.03 in 2.5 mi ESE 6.9 mph - 0.00 in Snow Light Snow
7:43 AM 32.0 °F 27.5 °F 26.6 °F 80% 30.03 in 3.0 mi ESE 4.6 mph - 0.00 in Snow Light Snow
7:50 AM 32.0 °F 27.5 °F 28.4 °F 87% 30.03 in 2.0 mi ESE 4.6 mph - 0.00 in Snow Light Snow
7:53 AM 32.0 °F 28.7 °F 28.0 °F 85% 30.04 in 1.8 mi East 3.5 mph - 0.00 in Snow Light Snow
8:02 AM 32.0 °F 27.5 °F 28.4 °F 87% 30.03 in 3.0 mi ESE 4.6 mph - 0.00 in Snow Light Snow
8:53 AM 33.1 °F 30.0 °F 27.0 °F 78% 30.05 in 10.0 mi East 3.5 mph - 0.00 in   Overcast
9:53 AM 35.1 °F 29.3 °F 25.0 °F 67% 30.04 in 10.0 mi ENE 6.9 mph - N/A   Overcast
10:53 AM 37.0 °F 33.3 °F 25.0 °F 62% 30.04 in 10.0 mi East 4.6 mph - N/A   Overcast
11:53 AM 39.0 °F 34.0 °F 24.1 °F 55% 30.04 in 10.0 mi ENE 6.9 mph - N/A   Overcast
12:53 PM 39.0 °F 34.8 °F 23.0 °F 53% 30.03 in 10.0 mi East 5.8 mph - N/A   Overcast
1:09 PM 39.2 °F 33.6 °F 23.0 °F 52% 30.02 in 10.0 mi East 8.1 mph - N/A   Overcast
1:16 PM 39.2 °F 33.6 °F 24.8 °F 56% 30.02 in 10.0 mi East 8.1 mph - N/A   Overcast
1:26 PM 39.2 °F 35.0 °F 24.8 °F 56% 30.01 in 10.0 mi East 5.8 mph - N/A   Overcast
1:53 PM 39.9 °F 35.1 °F 24.1 °F 53% 30.01 in 10.0 mi ESE 6.9 mph - N/A   Overcast
2:28 PM 41.0 °F 36.4 °F 24.8 °F 53% 29.99 in 10.0 mi East 6.9 mph - N/A   Overcast
2:53 PM 42.1 °F 37.7 °F 25.0 °F 51% 29.98 in 10.0 mi East 6.9 mph - N/A   Overcast
3:53 PM 42.1 °F 37.1 °F 26.1 °F 53% 29.97 in 10.0 mi East 8.1 mph - N/A   Overcast
4:53 PM 42.1 °F 38.4 °F 26.1 °F 53% 29.98 in 10.0 mi ENE 5.8 mph - N/A   Overcast
5:53 PM 42.1 °F 36.6 °F 26.1 °F 53% 29.99 in 10.0 mi NE 9.2 mph - N/A   Overcast
6:53 PM 41.0 °F 35.8 °F 25.0 °F 53% 29.99 in 10.0 mi ENE 8.1 mph - N/A   Overcast
7:53 PM 41.0 °F 36.4 °F 25.0 °F 53% 30.00 in 10.0 mi ENE 6.9 mph - N/A   Overcast
8:53 PM 41.0 °F 37.1 °F 26.1 °F 55% 30.01 in 10.0 mi ENE 5.8 mph - N/A   Overcast
9:53 PM 41.0 °F 38.0 °F 26.1 °F 55% 30.01 in 10.0 mi East 4.6 mph - N/A   Overcast
10:53 PM 41.0 °F 37.1 °F 24.1 °F 51% 30.00 in 10.0 mi ENE 5.8 mph - N/A   Overcast
11:53 PM 39.9 °F 36.7 °F 27.0 °F 60% 30.01 in 10.0 mi NNE 4.6 mph - N/A   Overcast